Location: Asheville, NC
(35.6000°N, 82.5500°W)
Time: 06:21:58
(UTC-05:00)

N. Korean satellite - Pass Details

Date: 10 December 2017
Orbit: 459 x 515 km, 97.2° (Epoch: 19 January)

Event Time Altitude Azimuth Distance (km) Brightness Sun altitude
Rises 19:28:44 0° 206° (SSW) 2,561 10.7 -26.0°
Reaches altitude 10° 19:31:30 10° 230° (SW) 1,696 10.1 -26.5°
Maximum altitude 19:33:40 15° 267° (W) 1,419 9.8 -27.0°
Drops below altitude 10° 19:35:52 10° 303° (WNW) 1,721 9.9 -27.4°
Sets 19:38:44 0° 327° (NNW) 2,621 10.6 -28.0°
